Regional Weather Roundup
Issued by NWS

Home | Current Version | Previous Version | Graphics & Text | Print | Product List | Glossary Off
Versions: 1 2 3 4 5 6 7 8 9 10 11 12 13 14 15 16 17 18 19 20 21 22 23 24 25 26 27 28 29 30 31 32 33 34 35 36 37 38 39 40 41 42 43 44 45 46 47 48 49 50

000
ASUS43 KMKX 272311
RWRWI

WISCONSIN REGIONAL WEATHER ROUNDUP
NATIONAL WEATHER SERVICE MILWAUKEE/SULLIVAN WI
600 PM CDT THU APR 27 2017

NOTE: "FAIR" INDICATES FEW OR NO CLOUDS BELOW 12,000 FEET WITH NO
SIGNIFICANT WEATHER AND/OR OBSTRUCTIONS TO VISIBILITY.

WIZ001-002-006>008-014>016-023>028-280000-
NORTHWEST WISCONSIN

CITY           SKY/WX    TMP DP  RH WIND       PRES   REMARKS
SUPERIOR ARPT  CLOUDY    32  22  65 W12       29.60R WCI  23
ASHLAND        CLOUDY    30  23  75 W9        29.58R WCI  22
HAYWARD        CLOUDY    30  21  69 VRB5      29.59R WCI  25
SIREN          CLOUDY    32  22  69 NW9G16    29.62R WCI  24
CUMBERLAND     CLOUDY    30  25  80 W13       29.61R WCI  20
RICE LAKE      CLOUDY    32  26  78 W10       29.63R WCI  23
CHETEK         NOT AVBL
LADYSMITH      CLOUDY    31  27  83 W12       29.61R WCI  22
EAU CLAIRE     CLOUDY    34  26  72 W10       29.63R WCI  26
MENOMONIE      CLOUDY    35  27  73 W12       29.64R WCI  26
NEW RICHMOND   CLOUDY    32  24  72 NW14      29.64R WCI  22
OSCEOLA        CLOUDY    32  24  71 W12       29.68R WCI  23
$$

WIZ003>005-009-010-017-018-280000-
NORTH CENTRAL WISCONSIN

CITY           SKY/WX    TMP DP  RH WIND       PRES   REMARKS
MANITOWISH WTR NOT AVBL
ARBOR VITAE    CLOUDY    32  27  83 W9        29.53R WCI  24
WOODRUFF       CLOUDY    32  27  83 W9        29.53R WCI  24
RHINELANDER    CLOUDY    31  26  82 W15G22    29.54R WCI  20
EAGLE RIVER    CLOUDY    29  23  77 W9        29.52R WCI  21
LAND O LAKES   CLOUDY    29  26  87 W7        29.53R WCI  22
PHILLIPS       CLOUDY    28  25  87 W8        29.56R WCI  20
TOMAHAWK       CLOUDY    30  26  84 W8        29.57R WCI  23
MEDFORD        CLOUDY    30  26  87 W9G17     29.58R WCI  21
MERRILL        LGT SNOW  32  30  94 W9        29.58R WCI  24
$$

WIZ029-030-035-036-043>047-280000-
CENTRAL WISCONSIN

CITY           SKY/WX    TMP DP  RH WIND       PRES   REMARKS
WAUSAU         CLOUDY    33  29  85 W17G23    29.58R WCI  22
MOSINEE        CLOUDY    34  30  86 W13G18    29.60R WCI  25
MARSHFIELD     CLOUDY    34  28  79 W12       29.59R WCI  25
STEVENS POINT  CLOUDY    35  31  86 W8        29.60R WCI  29
WAUPACA        CLOUDY    41  33  74 W12       29.62R
WAUTOMA        LGT RAIN  39  35  86 SW14      29.63R WCI  31
WISC RAPIDS    CLOUDY    38  33  82 W10G18    29.62R WCI  31
CAMP DOUGLAS   DRIZZLE   39  36  87 W13       29.63R WCI  32
$$

WIZ011>013-019>022-031-037>040-048>050-280000-
NORTHEAST WISCONSIN

CITY           SKY/WX    TMP DP  RH WIND       PRES   REMARKS
ANTIGO         CLOUDY    32  31  95 W10       29.56R FOG     WCI  24
SHAWANO        CLOUDY    39  33  80 W6G17     29.59R WCI  35
OCONTO         CLOUDY    37  32  80 W13G18    29.59R WCI  29
STURGEON BAY   CLOUDY    38  32  79 W14       29.60R WCI  30
GREEN BAY      CLOUDY    41  37  86 W14       29.60R
MANITOWOC      CLOUDY    43  34  70 W12       29.63R
APPLETON       CLOUDY    39  30  70 W14       29.59R WCI  31
CLINTONVILLE   LGT RAIN  37  32  81 W9G16     29.60R WCI  31
OSHKOSH        CLOUDY    41  34  76 W9        29.62R
$$

WIZ032>034-041-042-053>061-280000-
SOUTHWEST WISCONSIN

CITY           SKY/WX    TMP DP  RH WIND       PRES   REMARKS
LA CROSSE      CLOUDY    41  31  67 W14       29.66R
SPARTA         CLOUDY    38  33  80 W8G17     29.65R WCI  32
VIROQUA        CLOUDY    37  34  86 W12       29.64R WCI  30
BOSCOBEL       CLOUDY    42  31  64 W8G22     29.69R
PRAIRIE DU CHI CLOUDY    40  29  66 W15G21    29.70R WCI  31
PLATTEVILLE    CLOUDY    40  34  77 SW20G25   29.70R WCI  31
$$

WIZ056-057-062-063-064-067-068-280000-
SOUTH CENTRAL WISCONSIN

CITY           SKY/WX    TMP DP  RH WIND       PRES   REMARKS
REEDSBURG      NOT AVBL
BARABOO/DELLS  CLOUDY    40  33  74 SW13G18   29.64R WCI  33
LONE ROCK      CLOUDY    41  34  76 W13       29.67R
MINERAL POINT  CLOUDY    41  34  75 W12G18    29.68R
MADISON        CLOUDY    41  34  76 SW9G17    29.66R
MIDDLETON      CLOUDY    42  35  74 SW14      29.67R
WATERTOWN      CLOUDY    42  38  86 SW12      29.65R
MONROE         CLOUDY    41  32  70 SW21      29.68R
JANESVILLE     CLOUDY    43  37  81 SW14G20   29.68
$$

WIZ051-052-058>065-066-070>072-280000-
SOUTHEAST WISCONSIN

CITY           SKY/WX    TMP DP  RH WIND       PRES   REMARKS
MILWAUKEE      LGT RAIN  45  39  79 SW16G25   29.66R
WAUKESHA       CLOUDY    43  36  75 SW15G24   29.66R
MILWAUKEE/TIMM CLOUDY    45  36  70 SW16      29.65R
RACINE         LGT RAIN  44  36  73 SW12G23   29.69R
KENOSHA        CLOUDY    44  35  70 W16G28    29.69R
FOND DU LAC    LGT RAIN  41  34  76 W7        29.63R
SHEBOYGAN      CLOUDY    42  37  82 W12       29.63R
WEST BEND      LGT RAIN  41  37  87 W6G13     29.63R
JUNEAU         CLOUDY    42  36  80 SW17      29.64R
$$

LSZ147-162-280000-
LAKE SUPERIOR

STATION/POSITION TIME  TEMP    WIND        PRES    WAVE
                       AIR SEA DIR/SP/G            HT/PER
                 (UTC) (F)     (DEG/KT/KT) (MB)    (FT/S)
DEVILS ISLAND    2300   31     280/ 16/ 18 1001.6R
PORT WING        2230   32     270/ 12/ 17 1001.7R
SAXON HARBOR     2240   30     230/  5/ 10 1001.4R
$$

LMZ867-665-643>646-280000-
LAKE MICHIGAN

STATION/POSITION TIME  TEMP    WIND        PRES    WAVE
                       AIR SEA DIR/SP/G            HT/PER
                 (UTC) (F)     (DEG/KT/KT) (MB)    (FT/S)
CHAMBERS ISLAND  2240   36     210/  7/ 17 1001.0R
N MID LAKE BUOY  2250   37 37  240/ 16/ 17 1002.0R   4/ 6
NORTHPORT PIER   2240   36     260/  7/ 11 1001.4R
KEWAUNEE LAKESHO 2248   41     240/  7/ 10 1002.2R
SHEBOYGAN LAKESH 2300   43     240/ 11/ 13 1003.7R
PORT WASHINGTON  2230   45     220/  5/ 10 1004.7R
MILWAUKEE LAKESH 2250   45     250/ 11/ 15   N/A
S MID LAKE BUOY  2150   43 41  250/ 14/ 16 1005.4R   3/ 5
KENOSHA   LAKESH 2300   44     230/ 15/ 19 1006.1
$$

TC  - TEMPERATURE IN CELSIUS
VSB - VISIBILITY IN STATUTE MILES
WCI - WIND CHILL INDEX
HX  - HEAT INDEX





USA.gov is the U.S. government's official web portal to all federal, state and local government web resources and services.